Regional Weather Roundup
Issued by NWS Green Bay, WI

Home | Current Version | Previous Version | Text Only | Print | Product List | Glossary On
Versions: 1 2 3 4 5 6 7 8 9 10 11 12 13 14 15 16 17 18 19 20 21 22 23 24 25 26 27 28 29 30 31 32 33 34 35 36 37 38 39 40 41 42 43 44 45 46 47 48 49 50
000
ASUS43 KGRB 240710
RWRGRB

NORTH-CENTRAL AND NORTHEAST WISCONSIN REGIONAL WEATHER ROUNDUP
NATIONAL WEATHER SERVICE GREEN BAY WI
200 AM CDT THU JUL 24 2014

WIZ005-009-010>012-018-019-240800-
NORTH CENTRAL WISCONSIN

CITY           SKY/WX    TMP DP  RH WIND       PRES   REMARKS
IRONWOOD       NOT AVBL
MANITOWISH WTR CLEAR     47  47 100 CALM      30.21S FOG
ARBOR VITAE    CLEAR     49  41  74 CALM      30.21S
EAGLE RIVER    CLEAR     46  46 100 CALM      30.20F
LAND O LAKES   PTCLDY    45  44  99 CALM      30.22S
RHINELANDER    FOG       48  48 100 CALM      30.22R VSB 3/4
PHILLIPS       CLEAR     50  49  99 CALM      30.20R
ANTIGO         CLEAR     53  48  84 CALM      30.20S
TOMAHAWK       CLEAR     46  45  96 CALM      30.21S
MERRILL        CLEAR     49  49  98 NE3       30.20S
$$

WIZ013-073-240800-
NORTHEAST WISCONSIN

CITY           SKY/WX    TMP DP  RH WIND       PRES   REMARKS
IRON MOUNTAIN  CLEAR     47  43  86 CALM      30.18S
MARINETTE      CLEAR     52  46  82 CALM      30.17S
OCONTO         PTCLDY    51  51  99 CALM      30.18S
$$

WIZ017-030-035>037-045-240800-
CENTRAL WISCONSIN

CITY           SKY/WX    TMP DP  RH WIND       PRES   REMARKS
MEDFORD        CLEAR     52  50  93 NE5       30.19S
WAUSAU         CLEAR     56  51  84 E5        30.18S
MOSINEE        PTCLDY    54  54 100 E6        30.20S
MARSHFIELD     CLEAR     59  54  83 E6        30.18S
WISC RAPIDS    CLEAR     59  52  77 S6        30.19S
STEVENS POINT  PTCLDY    55  51  85 CALM      30.19F
WAUPACA        PTCLDY    57  55  92 CALM      30.19S
SHAWANO        CLOUDY    59  53  80 CALM      30.19S
CLINTONVILLE   CLOUDY    55  52  88 CALM      30.19S
$$

WIZ038-039-048-051-240800-
FOX VALLEY

CITY           SKY/WX    TMP DP  RH WIND       PRES   REMARKS
NWS GREEN BAY  CLOUDY    56  53  90 NW3       30.18S
APPLETON       NOT AVBL
OSHKOSH        CLEAR     54  50  86 CALM      30.17F
FOND DU LAC    PTCLDY    53  49  86 CALM      30.18S
$$

WIZ022-050-052-240800-
EAST CENTRAL WISCONSIN

CITY           SKY/WX    TMP DP  RH WIND       PRES   REMARKS
STURGEON BAY   CLEAR     52  45  76 CALM      30.18S
MANITOWOC      CLEAR     53  51  93 CALM      30.18S
SHEBOYGAN      CLEAR     51  49  92 NW5       30.17F
$$

LMZ563-521-522-541>543-240800-
LAKESHORE

STATION/POSITION TIME  TEMP    WIND        PRES    VSBY  WAVE
                       AIR SEA DIR/SP/G                  HT/PER
                 (UTC) (F)     (DEG/KT/KT) (MB)    (MI)  (FT/S)
SHEBOYGAN LKSHOR 0700   59     320/  6/  6 1021.8F
KEWAUNEE LKSHORE 0600   53     300/  2/  3 1022.5F
NORTHPORT PIER   0700   56      CALM  /  3 1021.3F
N MID LAKE BUOY  0600   56 54  340/  6/  6 1021.3S         1
CHAMBERS ISLAND  0700   54        CALM     1021.7F
MENOMINEE LKSHOR 0600   60     300/  2/  3 1022.3F
$$


USA.gov is the U.S. government's official web portal to all federal, state and local government web resources and services.